[[{"header":{"parameterUnit":"m.s-1","parameterCategory":1,"la1":30.2991,"la2":30.254,"lo1":-89.0895,"lo2":-89.0444,"dy":0.0017,"dx":0.0017,"nx":28,"ny":28,"refTime":"2024-08-17T21:00:00:Z","depth":0,"parameterNumber":2,"parameterNumberName":"U-component_of_WINDS"},"data":[0,0,0,0,0,0,0,0,0,0,0,0,0,0,0,0,0,0,0,0,0,0,0,0,0,0,0,0,0,0,0,0,0,0,0,0,0,0,0,0,0,0,0,0,0,0,0,0,0,0,0,0,0,0,0,0,0,0,0.1768,0.1768,0,0.1828,0.1829,0.1829,0.1852,0.1852,0.1852,0.1852,0.1916,0.1918,0.192,0,0,0,0,0,0,0,0,0,0,0,0,0,0.1675,0.1677,0.1768,0.1768,0.1769,0.1828,0.1829,0.1829,0.1852,0.1852,0.1852,0.1852,0.1916,0.1918,0.192,0,0,0,0,0,0,0,0,0,0,0,0,0,0.1724,0.1678,0.1768,0.1788,0.179,0.1828,0.1829,0.183,0.1852,0.1852,0.1852,0.1852,0.1915,0.1918,0.192,0.1943,0,0,0.1929,0.193,0,0,0,0,0,0,0,0,0.1721,0.1727,0.1784,0.1786,0.1789,0.1832,0.182,0.1868,0.1852,0.1829,0.1852,0.1851,0.1889,0.1894,0.1906,0.1946,0.1949,0.1929,0.1931,0.1932,0.1933,0,0,0,0,0,0,0,0.1717,0.1725,0.1792,0.1785,0.1788,0.1795,0.1801,0.1829,0.186,0.1831,0.1833,0.1839,0.189,0.1903,0.1907,0.195,0.1929,0.1932,0.1933,0.1935,0.2013,0.2014,0,0,0,0,0,0,0.171,0.1722,0.179,0.1793,0.1753,0.1796,0.1804,0.1819,0.1859,0.1865,0.1839,0.184,0.1898,0.1904,0.191,0.1939,0.1932,0.1935,0.1936,0.2013,0.2013,0.2014,0,0,0,0,0,0,0.1708,0.1716,0.1787,0.1758,0.1768,0.1798,0.1815,0.182,0.1833,0.1866,0.1872,0.1847,0.1898,0.1906,0.1935,0.1942,0.1936,0.1939,0.2012,0.2013,0.2013,0.1999,0,0,0,0,0,0,0.1706,0.1715,0.1724,0.1758,0.1769,0.181,0.1815,0.1821,0.1837,0.1839,0.1874,0.188,0.1898,0.193,0.1937,0.1946,0.1941,0.2012,0.2013,0.2013,0.1999,0.1999,0.1999,0,0,0,0,0,0.1702,0.1718,0.1724,0.1732,0.178,0.1811,0.1817,0.1837,0.1838,0.1847,0.1868,0.1879,0.194,0.1933,0.1941,0.1951,0.2011,0.2012,0.2013,0.1999,0.1999,0.1999,0,0,0,0,0,0,0.1685,0.1723,0.173,0.1757,0.178,0.1814,0.1827,0.1837,0.1861,0.1862,0.1887,0.1895,0.1922,0.1939,0.1931,0.1975,0.1977,0.1979,0.1963,0.1963,0.1963,0.1959,0.1943,0,0,0,0,0,0.1684,0.1704,0.1737,0.1758,0.1769,0.1796,0.181,0.1823,0.1849,0.1859,0.1883,0.1908,0.1933,0.1949,0.1974,0.2001,0.201,0.2012,0.2012,0.2012,0.2014,0.203,0.2032,0.2017,0.2017,0.2017,0,0,0.1682,0.1706,0.1717,0.1755,0.1775,0.1797,0.1804,0.1827,0.1844,0.1863,0.1892,0.191,0.194,0.1968,0.1982,0.1984,0.202,0.2013,0.2013,0.2015,0.2031,0.2033,0.2034,0.2017,0.2017,0.2017,0,0,0.1691,0.171,0.173,0.1749,0.1779,0.1797,0.1801,0.1834,0.1846,0.1875,0.189,0.1911,0.1954,0.1974,0.199,0.2007,0.2018,0.2014,0.2015,0.203,0.2032,0.2033,0.2039,0.2041,0.2016,0.2016,0.2016,0,0.1686,0.1719,0.1739,0.1761,0.1777,0.1795,0.1815,0.1834,0.187,0.1881,0.1882,0.1936,0.1957,0.1991,0.1995,0.2007,0.2014,0.2011,0.203,0.2031,0.2033,0.2039,0.2041,0.2016,0.2016,0.2016,0.2016,0,0.1711,0.1734,0.1746,0.178,0.1797,0.1819,0.1843,0.1859,0.1871,0.1888,0.1918,0.1944,0.1975,0.1984,0.1996,0.2019,0.2019,0.2025,0.2027,0.2033,0.2039,0.2042,0.2015,0.2015,0.2015,0.2015,0,0,0.171,0.1755,0.1759,0.1775,0.1809,0.1827,0.1849,0.1878,0.1891,0.1916,0.1936,0.1971,0.1976,0.1994,0.2009,0.2023,0.2035,0.2027,0.2028,0.2028,0.2063,0.2058,0.2061,0.2042,0.2042,0.2043,0.206,0,0.1724,0.1763,0.1782,0.1814,0.1836,0.1853,0.1872,0.1896,0.1913,0.1935,0.1954,0.1979,0.1983,0.1995,0.2009,0.203,0.2042,0.2029,0.2061,0.2062,0.2054,0.2064,0.206,0.2075,0.2063,0.2063,0.2063,0,0.1745,0.1768,0.1802,0.1833,0.1843,0.186,0.1888,0.1908,0.1936,0.1947,0.1967,0.1982,0.2007,0.2006,0.2042,0.2032,0.2047,0.2059,0.206,0.2064,0.2063,0.2069,0.208,0.2082,0.2068,0.2067,0.2067,0,0.1741,0.1782,0.1807,0.182,0.1857,0.1869,0.1885,0.1912,0.1928,0.1953,0.1964,0.1992,0.2007,0.2029,0.205,0.2048,0.2084,0.2085,0.2095,0.2094,0.2102,0.2101,0.2116,0.211,0.211,0.211,0.211,0,0.1754,0.1774,0.1806,0.1821,0.1845,0.1867,0.1889,0.1907,0.1931,0.1951,0.1968,0.1986,0.2013,0.2036,0.2053,0.208,0.2086,0.2097,0.2102,0.2096,0.2094,0.2106,0.2106,0.2111,0.2111,0.211,0.211,0,0.1754,0.1776,0.1805,0.1838,0.1847,0.1862,0.1891,0.1907,0.1925,0.195,0.1957,0.1986,0.2013,0.2037,0.2073,0.2084,0.2112,0.2117,0.2102,0.2105,0.2113,0.2112,0.2136,0.214,0.2131,0.2132,0.2132,0,0.1762,0.1777,0.1812,0.1826,0.1841,0.1864,0.1881,0.1903,0.192,0.1952,0.1965,0.1993,0.2016,0.2059,0.2083,0.2111,0.2117,0.2124,0.2122,0.2116,0.2118,0.2117,0.2119,0.2124,0.2124,0.2124,0.2124,0,0.1772,0.1782,0.1805,0.1831,0.185,0.1873,0.1895,0.1906,0.1933,0.1951,0.1979,0.1997,0.2033,0.2061,0.2092,0.2109,0.2121,0.2124,0.2128,0.2123,0.2113,0.2119,0.2103,0.2124,0.2124,0.2124,0.2124,0.2124,0.1776,0.1791,0.1817,0.1842,0.1862,0.1883,0.1899,0.1919,0.1942,0.1973,0.1985,0.2013,0.2041,0.2083,0.21,0.2123,0.2125,0.213,0.2132,0.2133,0.2132,0.2109,0.2129,0.2129,0.2129,0.2129,0.2129,0,0.1787,0.1805,0.1828,0.1859,0.1879,0.1888,0.1913,0.193,0.1954,0.1978,0.2,0.2032,0.2059,0.2086,0.2115,0.2128,0.2134,0.2135,0.2134,0.2138,0.2129,0.2122,0.2129,0.2129,0.2129,0.2129,0.2129,0.2129,0.1796,0.1821,0.1835,0.187,0.1888,0.1915,0.1929,0.1949,0.1968,0.2003,0.2025,0.2042,0.2067,0.2098,0.2123,0.2131,0.2141,0.214,0.2148,0.2139,0.2139,0.2138,0.2133,0.2142,0.2142,0.2156,0.2156,0.2156]},{"header":{"parameterUnit":"m.s-1","parameterCategory":1,"la1":30.2991,"la2":30.254,"lo1":-89.0895,"lo2":-89.0444,"dy":0.0017,"dx":0.0017,"nx":28,"ny":28,"refTime":"2024-08-17T21:00:00:Z","depth":0,"parameterNumber":3,"parameterNumberName":"V-component_of_WINDS"},"data":[0,0,0,0,0,0,0,0,0,0,0,0,0,0,0,0,0,0,0,0,0,0,0,0,0,0,0,0,0,0,0,0,0,0,0,0,0,0,0,0,0,0,0,0,0,0,0,0,0,0,0,0,0,0,0,0,0,0,2.5269,2.5269,0,2.5315,2.5315,2.5316,2.5346,2.5346,2.5346,2.5346,2.539,2.5391,2.5392,0,0,0,0,0,0,0,0,0,0,0,0,0,2.5201,2.5202,2.5269,2.5269,2.527,2.5314,2.5315,2.5316,2.5346,2.5346,2.5346,2.5346,2.539,2.5391,2.5392,0,0,0,0,0,0,0,0,0,0,0,0,0,2.5237,2.5203,2.5269,2.529,2.5293,2.5314,2.5315,2.5316,2.5346,2.5346,2.5346,2.5346,2.5389,2.5391,2.5392,2.5395,0,0,2.5396,2.5397,0,0,0,0,0,0,0,0,2.5235,2.524,2.5286,2.5289,2.5291,2.5325,2.5307,2.5342,2.5346,2.5325,2.5346,2.5347,2.5368,2.5371,2.5379,2.5397,2.5399,2.5397,2.5397,2.5398,2.5399,0,0,0,0,0,0,0,2.5233,2.5238,2.5287,2.5287,2.529,2.5296,2.5301,2.5314,2.5344,2.5327,2.5329,2.5335,2.5369,2.5377,2.538,2.5399,2.5397,2.5398,2.5399,2.5399,2.5418,2.5418,0,0,0,0,0,0,2.5227,2.5235,2.5285,2.5288,2.5264,2.5297,2.5303,2.5314,2.5344,2.5349,2.5334,2.5336,2.5375,2.5378,2.5382,2.5385,2.5398,2.5399,2.54,2.5418,2.5418,2.5418,0,0,0,0,0,0,2.5226,2.5231,2.5283,2.5262,2.5269,2.5298,2.531,2.5314,2.5323,2.535,2.5355,2.5338,2.5375,2.538,2.5391,2.5387,2.54,2.5401,2.5419,2.5418,2.5418,2.5392,0,0,0,0,0,0,2.5224,2.5231,2.5234,2.5262,2.5271,2.5293,2.5309,2.5315,2.5326,2.5328,2.5354,2.5359,2.5376,2.5388,2.5392,2.5389,2.5403,2.5419,2.5419,2.5418,2.5394,2.5391,2.5389,0,0,0,0,0,2.5221,2.5225,2.5234,2.524,2.5275,2.5293,2.5298,2.5318,2.5325,2.5327,2.5344,2.5358,2.5387,2.5389,2.5394,2.5391,2.542,2.5419,2.5418,2.5395,2.5391,2.5389,0,0,0,0,0,0,2.5195,2.5229,2.5239,2.5253,2.527,2.5298,2.5302,2.5315,2.533,2.5331,2.5355,2.536,2.5368,2.5381,2.5383,2.5393,2.5404,2.5404,2.5385,2.5382,2.538,2.5376,2.5404,0,0,0,0,0,2.5191,2.5204,2.5233,2.5242,2.525,2.5274,2.5283,2.5297,2.5315,2.5322,2.534,2.5356,2.5368,2.5376,2.5389,2.5395,2.54,2.5395,2.5393,2.539,2.539,2.5391,2.5388,2.5415,2.5415,2.5415,0,0,2.5182,2.5203,2.521,2.5237,2.5252,2.5263,2.528,2.5292,2.53,2.5324,2.5335,2.5348,2.5367,2.5375,2.5379,2.5386,2.5383,2.5389,2.5387,2.5388,2.539,2.5387,2.5385,2.5414,2.5414,2.5414,0,0,2.5173,2.519,2.5198,2.5212,2.5234,2.525,2.5251,2.5277,2.5287,2.5299,2.5316,2.5324,2.5346,2.5358,2.5367,2.5357,2.537,2.5361,2.5348,2.5348,2.5346,2.5344,2.5339,2.5337,2.536,2.536,2.536,0,2.5159,2.5178,2.52,2.5211,2.522,2.5242,2.5249,2.5261,2.5286,2.5291,2.5298,2.5324,2.5338,2.5348,2.5345,2.5352,2.5353,2.5358,2.5345,2.5343,2.5342,2.5337,2.5335,2.5359,2.5359,2.5359,2.5359,0,2.5159,2.5172,2.5175,2.5198,2.5209,2.5217,2.5238,2.5245,2.5257,2.5271,2.5281,2.5299,2.5315,2.5318,2.533,2.5328,2.5331,2.5341,2.5352,2.5338,2.5333,2.5332,2.5357,2.5358,2.5358,2.5358,0,0,2.5137,2.517,2.5171,2.518,2.5204,2.5213,2.522,2.5236,2.5241,2.5256,2.5261,2.5278,2.5286,2.5296,2.5309,2.531,2.5298,2.532,2.532,2.5313,2.5293,2.5284,2.5282,2.5306,2.5306,2.5305,2.5291,0,2.513,2.5146,2.5164,2.5173,2.5183,2.5202,2.5208,2.5222,2.5234,2.5243,2.5256,2.5266,2.5278,2.5284,2.5285,2.5299,2.5294,2.53,2.5309,2.5309,2.5303,2.528,2.5272,2.5257,2.5289,2.5289,2.5289,0,2.5125,2.5138,2.5148,2.5168,2.5173,2.5178,2.5192,2.5201,2.5216,2.5224,2.5233,2.5247,2.5253,2.5263,2.5271,2.5275,2.5279,2.5286,2.5285,2.5287,2.5298,2.5279,2.5254,2.5251,2.5287,2.5287,2.5287,0,2.5105,2.5126,2.5134,2.5141,2.5165,2.5168,2.5177,2.5193,2.52,2.5211,2.5215,2.5227,2.5233,2.5241,2.5256,2.5262,2.526,2.5273,2.5266,2.5265,2.5265,2.5264,2.5238,2.5269,2.5269,2.5269,2.5269,0,2.5095,2.51,2.5125,2.5129,2.5134,2.5153,2.5157,2.5168,2.5181,2.5186,2.5203,2.5207,2.5228,2.5233,2.5245,2.5248,2.5251,2.5256,2.5259,2.5254,2.5253,2.5257,2.5258,2.5268,2.5269,2.5269,2.5269,0,2.5075,2.5092,2.5101,2.5122,2.5127,2.5129,2.5146,2.515,2.5162,2.5168,2.517,2.5189,2.5196,2.5212,2.5224,2.5232,2.5231,2.5237,2.5226,2.5228,2.5219,2.5219,2.5194,2.519,2.5224,2.5224,2.5224,0,2.5067,2.5071,2.5091,2.5096,2.5105,2.5113,2.5119,2.5137,2.5143,2.5158,2.5159,2.5168,2.5176,2.5186,2.52,2.5208,2.5213,2.5204,2.5215,2.5208,2.5211,2.521,2.5209,2.5201,2.5201,2.52,2.52,0,2.5051,2.5058,2.5068,2.5078,2.5085,2.5095,2.5105,2.5108,2.5127,2.5132,2.514,2.5146,2.5157,2.5164,2.5174,2.5182,2.5193,2.5196,2.5195,2.5189,2.5182,2.5184,2.5218,2.5197,2.5197,2.5197,2.5197,2.5198,2.5036,2.5039,2.5052,2.5061,2.507,2.5078,2.5082,2.5093,2.51,2.5111,2.512,2.5126,2.5137,2.5151,2.5158,2.5161,2.5167,2.5165,2.5165,2.5164,2.5161,2.5182,2.5163,2.5163,2.5163,2.5163,2.5163,0,2.5019,2.5028,2.5036,2.5048,2.5054,2.5064,2.5075,2.5078,2.5083,2.5093,2.5099,2.5106,2.5112,2.5125,2.5132,2.5132,2.5137,2.5133,2.5133,2.5134,2.5156,2.5156,2.5128,2.5128,2.5128,2.5129,2.5129,2.5129,2.5011,2.5016,2.5024,2.5031,2.504,2.5046,2.505,2.5057,2.5064,2.5071,2.5076,2.5084,2.5094,2.5101,2.5106,2.5109,2.511,2.5104,2.5109,2.5129,2.5133,2.5136,2.5135,2.5104,2.5104,2.5086,2.5086,2.5085]}]]